FW1436 Weather Reports


time (UTC)temp
C
wind
direction
speed
KPH
gust
KPH
rain 1hr
cm
rain 24hr
cm
rain mn
cm
humidity
%
barometer
mb
20260903151508 37 231 1.6 12.9 0.00 0.00 0.00 19 1015.8
20260903150018 37 253 3.2 14.5 0.00 0.00 0.00 19 1016.0
20260903144510 37 296 8.0 14.5 0.00 0.00 0.00 18 1016.3
20260903143011 37 257 3.2 12.9 0.00 0.00 0.00 19 1016.3
20260903141501 36 283 3.2 12.9 0.00 0.00 0.00 20 1016.4
20260903140110 36 281 3.2 16.1 0.00 0.00 0.00 20 1016.5
20260903134559 36 290 4.8 22.5 0.00 0.00 0.00 21 1016.9
20260903133101 36 307 6.4 14.5 0.00 0.00 0.00 20 1016.9
20260903131553 36 242 6.4 19.3 0.00 0.00 0.00 21 1017.1
20260903130051 35 271 6.4 14.5 0.00 0.00 0.00 21 1017.2
20260903124553 35 146 3.2 19.3 0.00 0.00 0.00 22 1017.3
20260903123048 35 314 4.8 17.7 0.00 0.00 0.00 22 1017.4
20260903121548 35 289 6.4 17.7 0.00 0.00 0.00 24 1017.5
20260903120059 34 199 4.8 14.5 0.00 0.00 0.00 23 1017.7
20260903114543 34 152 3.2 9.7 0.00 0.00 0.00 23 1017.8
20260903113041 33 214 1.6 11.3 0.00 0.00 0.00 26 1018.1
20260903111539 33 306 0.0 8.0 0.00 0.00 0.00 29 1018.2
20260903110034 32 237 0.0 11.3 0.00 0.00 0.00 31 1018.3
20260903104531 31 109 1.6 8.0 0.00 0.00 0.00 35 1018.6
20260903103028 30 117 3.2 8.0 0.00 0.00 0.00 37 1018.7
20260903101531 29 237 1.6 9.7 0.00 0.00 0.00 39 1018.9
20260903100022 28 113 1.6 9.7 0.00 0.00 0.00 40 1019.0
20260903094520 28 74 6.4 9.7 0.00 0.00 0.00 41 1019.0
20260903093021 28 143 0.0 8.0 0.00 0.00 0.00 42 1019.1
20260903091517 28 151 1.6 6.4 0.00 0.00 0.00 42 1019.2
20260903090026 27 104 0.0 4.8 0.00 0.00 0.00 43 1019.2
20260903084512 26 151 1.6 8.0 0.00 0.00 0.00 43 1019.1
20260903083009 26 79 3.2 8.0 0.00 0.00 0.00 45 1019.0
20260903081507 25 103 1.6 8.0 0.00 0.00 0.00 43 1019.1
20260903080005 25 116 3.2 6.4 0.00 0.00 0.00 41 1019.0
20260903074504 24 121 1.6 4.8 0.00 0.00 0.00 40 1019.0
20260903073003 23 118 1.6 4.8 0.00 0.00 0.00 40 1018.9
20260903071503 23 119 0.0 4.8 0.00 0.00 0.00 41 1018.8
20260903070105 22 102 0.0 1.6 0.00 0.00 0.00 40 1018.7
20260903064558 22 109 0.0 3.2 0.00 0.00 0.00 41 1018.5
20260903063100 -17 0.0 0.0 0.00 0.00 0.00 1018.5
20260903061612 -17 0.0 0.0 0.00 0.00 0.00 1018.3
20260903060046 -17 0.0 0.0 0.00 0.00 0.00 1018.2
20260903054541 -17 0.0 0.0 0.00 0.00 0.00 1018.1
20260903053038 -17 0.0 0.0 0.00 0.00 0.00 1018.0
20260903051534 -17 0.0 0.0 0.00 0.00 0.00 1018.1
20260903050032 -17 134 0.0 1.6 0.00 0.00 0.00 1018.1
20260903044527 20 248 0.0 3.2 0.00 0.00 0.00 42 1018.0
20260903043025 20 147 0.0 1.6 0.00 0.00 0.00 42 1017.9
20260903041531 20 89 0.0 1.6 0.00 0.00 0.00 41 1017.7
20260903040022 20 96 0.0 0.0 0.00 0.00 0.00 41 1017.7
20260903034525 21 96 0.0 8.0 0.00 0.00 0.00 39 1017.6
20260903033035 21 99 0.0 8.0 0.00 0.00 0.00 38 1017.7
20260903031517 22 136 0.0 4.8 0.00 0.00 0.00 37 1017.6
20260903030016 22 108 0.0 1.6 0.00 0.00 0.00 37 1017.6
20260903024516 21 82 0.0 0.0 0.00 0.00 0.00 38 1017.6
20260903023015 21 82 0.0 0.0 0.00 0.00 0.00 38 1017.7
20260903021514 21 82 0.0 0.0 0.00 0.00 0.00 38 1017.4
20260903020014 21 82 0.0 0.0 0.00 0.00 0.00 39 1017.5
20260903014516 21 82 0.0 0.0 0.00 0.00 0.00 38 1017.5
20260903013012 21 82 0.0 0.0 0.00 0.00 0.00 39 1017.4
20260903011511 21 82 0.0 0.0 0.00 0.00 0.00 38 1017.4
20260903010011 22 82 0.0 0.0 0.00 0.00 0.00 37 1017.5
20260903004511 22 82 0.0 0.0 0.00 0.00 0.00 36 1017.4
20260903003008 21 82 0.0 1.6 0.00 0.00 0.00 39 1017.5
20260903001506 21 234 0.0 0.0 0.00 0.00 0.00 44 1017.5
20260903000005 21 234 0.0 0.0 0.00 0.00 0.00 45 1017.5
20260902234505 21 234 0.0 0.0 0.00 0.00 0.00 45 1017.4
20260902233106 21 248 0.0 0.0 0.00 0.00 0.00 44 1017.2
20260902231607 22 248 0.0 0.0 0.00 0.00 0.00 44 1017.2
20260902230054 22 248 0.0 0.0 0.00 0.00 0.00 40 1017.2
20260902224603 23 248 0.0 0.0 0.00 0.00 0.00 40 1017.0
20260902223049 23 239 0.0 1.6 0.00 0.00 0.00 39 1017.0
20260902221546 24 139 0.0 0.0 0.00 0.00 0.00 38 1016.9
20260902220045 25 120 1.6 12.9 0.00 0.00 0.00 36 1016.9
20260902214541 26 313 0.0 0.0 0.00 0.00 0.00 35 1016.7
20260902213043 26 321 0.0 1.6 0.00 0.00 0.00 36 1016.7
20260902211545 26 298 0.0 0.0 0.00 0.00 0.00 36 1016.7
20260902210046 26 298 0.0 0.0 0.00 0.00 0.00 36 1016.6
20260902204542 27 298 0.0 0.0 0.00 0.00 0.00 34 1016.7
20260902203048 27 298 0.0 0.0 0.00 0.00 0.00 34 1016.6
20260902201544 27 321 0.0 4.8 0.00 0.00 0.00 33 1016.5
20260902200051 28 226 0.0 0.0 0.00 0.00 0.00 32 1016.4
20260902194538 28 226 0.0 1.6 0.00 0.00 0.00 30 1016.1
20260902193035 28 225 0.0 1.6 0.00 0.00 0.00 31 1015.8
20260902191546 30 222 0.0 1.6 0.00 0.00 0.00 29 1015.6
20260902190039 30 220 0.0 1.6 0.00 0.00 0.00 28 1015.4
20260902184545 31 220 0.0 3.2 0.00 0.00 0.00 27 1015.1
20260902183032 32 278 0.0 3.2 0.00 0.00 0.00 27 1015.0
20260902181530 33 262 1.6 9.7 0.00 0.00 0.00 25 1015.0
20260902180033 33 264 1.6 11.3 0.00 0.00 0.00 26 1015.0
20260902174528 34 260 1.6 9.7 0.00 0.00 0.00 25 1015.0
20260902173028 34 224 1.6 16.1 0.00 0.00 0.00 24 1014.9
20260902171629 35 204 1.6 11.3 0.00 0.00 0.00 22 1014.9
20260902170026 35 296 3.2 9.7 0.00 0.00 0.00 23 1015.0
20260902164525 35 264 4.8 12.9 0.00 0.00 0.00 22 1015.0
20260902163025 35 220 1.6 11.3 0.00 0.00 0.00 22 1015.1
20260902161523 35 251 3.2 11.3 0.00 0.00 0.00 22 1015.2
20260902160022 35 330 4.8 14.5 0.00 0.00 0.00 21 1015.3
20260902154526 35 297 4.8 12.9 0.00 0.00 0.00 22 1015.4
20260902153023 35 259 3.2 9.7 0.00 0.00 0.00 24 1015.3